Weather History for Clarksville, TN

Change the Weather History Date:

Friday, November 11, 2011

  Actual Average Record
Temperature  
Mean Temperature 42 °F -  
Max Temperature 59 °F - 81 °F (1989)
Min Temperature 24 °F - 20 °F (1960)
Degree Days  
Heating Degree Days 23    
Month to date heating degree days 146  
Since 1 July heating degree days 419  
Cooling Degree Days 0    
Month to date cooling degree days 0  
Moisture  
Dew Point 26 °F    
Average Humidity 60    
Maximum Humidity 92    
Minimum Humidity 28    
Precipitation  
Precipitation 0.00 in - 1.35 in (2004)
Month to date precipitation 0.45  
Sea Level Pressure  
Sea Level Pressure 30.11 in    
Wind  
Wind Speed 7 mph (SSW)    
Max Wind Speed 18 mph    
Max Gust Speed 23 mph    
Visibility 10 miles    
Events      
T = Trace of Precipitation, MM = Missing Value Source: NWS Daily Summary

Daily Weather History Graph

Daily Weather History Graph

Search for Another Location

Airport:

Trip Planner

Search our weather history database for the weather conditions in past years. The results will help you decide how hot, cold, wet, or windy it might be!

Date:

Astronomy

Nov. 11, 2011 Rise Set
Actual Time 6:23 AM CST 4:43 PM CST
Civil Twilight 5:55 AM CST 5:11 PM CST
Nautical Twilight 5:24 AM CST 5:42 PM CST
Astronomical Twilight 4:54 AM CST 6:12 PM CST
Moon 5:15 PM CST (11/11) 7:08 AM CST (11/11)
Length of Visible Light 11h 15m
Length of Day
10h 20m
Full, 99% of the Moon is Illuminated
Nov 11
Full
Nov 18
Last Quarter
Nov 25
New
Dec 2
First Quarter
Dec 10
Full

Hourly Weather History & Observations

Time (CST) Temp. Windchill Dew Point Humidity Pressure Visibility Wind Dir Wind Speed Gust Speed Precip Events Conditions
12:52 AM 28.9 °F - 21.9 °F 75% 30.18 in 10.0 mi Calm Calm - N/A   Clear
1:52 AM 28.0 °F - 23.0 °F 81% 30.18 in 10.0 mi Calm Calm - N/A   Clear
3:52 AM 26.1 °F - 23.0 °F 88% 30.19 in 10.0 mi Calm Calm - N/A   Clear
4:52 AM 26.1 °F - 21.9 °F 84% 30.20 in 10.0 mi Calm Calm - N/A   Clear
6:52 AM 25.0 °F - 23.0 °F 92% 30.22 in 10.0 mi Calm Calm - N/A   Clear
9:52 AM 46.0 °F 41.0 °F 21.9 °F 39% 30.19 in 10.0 mi SSW 10.4 mph - N/A   Clear
10:52 AM 48.9 °F - 21.0 °F 33% 30.17 in 10.0 mi SSW 9.2 mph - N/A   Clear
11:52 AM 52.0 °F - 24.1 °F 34% 30.12 in 10.0 mi South 12.7 mph - N/A   Clear
1:52 PM 57.9 °F - 27.0 °F 31% 30.07 in 10.0 mi South 12.7 mph 19.6 mph N/A   Clear
2:52 PM 59.0 °F - 27.0 °F 29% 30.05 in 10.0 mi SW 10.4 mph - N/A   Clear
3:52 PM 57.9 °F - 27.0 °F 31% 30.04 in 10.0 mi SW 11.5 mph 20.7 mph N/A   Clear
4:52 PM 54.0 °F - 28.0 °F 37% 30.04 in 10.0 mi South 10.4 mph - N/A   Clear
5:52 PM 52.0 °F - 28.9 °F 41% 30.04 in 10.0 mi South 10.4 mph - N/A   Clear
6:52 PM 53.1 °F - 28.9 °F 40% 30.04 in 10.0 mi South 11.5 mph - N/A   Clear
7:52 PM 52.0 °F - 30.0 °F 43% 30.04 in 10.0 mi South 10.4 mph - N/A   Clear
8:52 PM 51.1 °F - 30.9 °F 46% 30.05 in 10.0 mi SSW 10.4 mph - N/A   Clear
9:52 PM 48.0 °F - 30.9 °F 52% 30.06 in 10.0 mi South 9.2 mph - N/A   Clear
10:52 PM 46.9 °F - 32.0 °F 56% 30.06 in 10.0 mi SSW 8.1 mph - N/A   Clear
11:52 PM 48.0 °F - 32.0 °F 54% 30.06 in 10.0 mi SSW 6.9 mph - N/A   Clear